CZ-6A DEB, 54500

Orbit data source: Space-Track

CZ-6A DEB, 54500 is space debris in SSO originally from a launch on Fri, 11 Nov 2022 UTC launched from the Taiyaun Space Center, China (TSC). Debris objects in space refer to the collection of defunct objects orbiting the Earth. Examples of debris include non-operational satellites, rocket bodies, and fragments generated from explosions, collisions, or faulty payload assembly.

Loading next visibility...
Identifier
54500, 2022-151JC
Orbit
SSO
Country
Flag of CNCN / PRC
Related business
Manufacturer
SAST
Mission
Spacecraft
Bus & Motor
Unknown
Mass
Unknown
Launch date (UTC)
2022-11-11 (3 years ago)
Launch vehicle
Unknown
Launch site
Taiyaun Space Center, China (TSC)
Object type
Payload
Rocket body
Debris
Shape & HBR
Unknown shape, 1.1 m
Radar Cross Section
Small (<0.1 m²)

Expand to show TLE details & history
Last TLE update: 21 hours ago

TLE from 21 hours ago
0 CZ-6A DEB
1 54500U 22151JC  26130.09194499  .00001484  00000-0  56762-3 0  9998
2 54500  98.8774 175.0746 0107932 278.1936  80.7015 14.29086180181142
Epoch: 2026-05-10T02:12Z
TLE epoch observation values (Epoch: 2026-05-10T02:12:24.047Z)
Latitude
-0°
Longitude
-85.92559°
Altitude
786.013 km
Speed
7.467 km/s
True Right ascension
11h 40m 17s
True Declination
0° 00' 00"
Sunlit
Object was in full shadow at epoch
Visualization orbit readout
Latitude
Unknown
Longitude
Unknown
Altitude
Unknown
Speed
Unknown
Apparent Right ascension
Unknown
Apparent Declination
Unknown
Sunlit
N/A
Visualization observer readout
Local Sidereal Time
07:22:49
Azimuth
Unknown
Elevation
Unknown
Doppler factor
Unknown
Orbital elements
Apogee altitude
869.329 km
Perigee altitude
714.553 km
Semi-major axis
7,170.078 km
Eccentricity
0.01079
Inclination
98.8774°
RAAN
175.0746°
Arg. of periapsis
278.1936°
True anomaly
81.92463°
Mean anomaly
80.7015°
Eccentric anomaly
81.31281°
Mean motion
3.57485 °/min
Orbital period
100.7 mins
BSTAR
0.00056762
Loading maneuver chart data...
Computing Atmospheric mass density...
Loading historical data...
Loading historical data...
Loading historical data...
Loading historical data...
Loading historical data...
Loading historical data...
Loading historical data...

Documentation

Showing up to 5 results
|